Flag for Germany Weather past 2 weeks in Koblenz, Rhineland-Palatinate, Germany

Now
37 °F

Rain. Fog.


Feels Like: 34 °F
Forecast: 31 / 46 °F
Wind: 5 mph from Southwest

Location: Buechel

Current Time: Feb 27, 2015 at 5:10:14 AM

Latest Report: Feb 27, 2015 at 4:20 AM


Visibility: 2 mi

Pressure: 29.74 "Hg

Humidity: 100%

Dew point: 37 °F

Location of KoblenzLocation

Historic Weather in Koblenz — Graph

°F

Koblenz temperature yesterday

Maximum temperature yesterday: 41 °F (at 12:20 PM)
Minimum temperature yesterday: 36 °F (at 12:20 AM)
Average temperature yesterday: 38 °F

Past Weeks' High & Low Weather Summary

 TemperatureHumidityPressure
High45 °F (Feb 20, 4:20 PM)100% (Feb 12, 3:20 AM)30.69 "Hg (Feb 12, 3:20 AM)
Low27 °F (Feb 12, 11:20 PM)56% (Feb 22, 1:20 PM)29.39 "Hg (Feb 21, 4:20 AM)
Average33 °F92%29.97 "Hg
* Reported Feb 12 3:20 AM — Feb 27 3:20 AM, Koblenz, Weather by CustomWeather, © 2015

Note: Actual official high and low records may vary slightly from our data, if they occured in-between our weather recording intervals... More about our weather records

Advertising

Koblenz weather history for previous 24 hours

 ConditionsComfort  
Time TempWeatherWind HumidityBarometerVisibility
3:20 AM
Fri, Feb 27
37 °FChilly.6 mph100%29.74 "Hg0 mi
2:20 AM37 °FChilly.7 mph100%29.77 "Hg1 mi
1:20 AM37 °FChilly.10 mph100%29.77 "Hg1 mi
12:20 AM37 °FChilly.9 mph100%29.80 "Hg1 mi
11:20 PM
Thu, Feb 26
37 °FChilly.9 mph100%29.80 "Hg1 mi
10:20 PM37 °FChilly.10 mph100%29.83 "Hg2 mi
9:20 PM37 °FChilly.10 mph100%29.86 "Hg2 mi
8:20 PM39 °FChilly.12 mph87%29.89 "HgN/A
7:20 PM39 °FChilly.9 mph87%29.92 "HgN/A
6:20 PM39 °FChilly.9 mph87%29.92 "HgN/A
5:20 PM41 °FBroken clouds.9 mph81%29.95 "HgN/A
4:20 PM41 °FBroken clouds.10 mph81%29.95 "HgN/A
3:20 PM41 °FBroken clouds.12 mph81%29.98 "HgN/A
2:20 PM41 °FBroken clouds.10 mph87%30.01 "HgN/A
1:20 PM41 °FBroken clouds.12 mph87%30.01 "HgN/A
12:20 PM41 °FBroken clouds.12 mph93%30.04 "HgN/A
11:20 AM39 °FBroken clouds.12 mph100%30.07 "Hg4 mi
10:45 AM37 °FFog.10 mph100%30.07 "Hg2 mi
10:20 AM37 °FFog.10 mph100%30.07 "Hg2 mi
10:03 AM37 °FFog.10 mph100%30.07 "Hg1 mi
9:20 AM37 °FFog.9 mph100%30.07 "Hg0 mi
8:20 AM37 °FFog.6 mph93%30.09 "Hg0 mi
7:20 AM36 °FFog.5 mph100%30.09 "Hg0 mi
6:20 AM36 °FFog.6 mph100%30.09 "Hg0 mi
5:20 AM36 °FFog.5 mph100%30.09 "Hg0 mi
Weather by CustomWeather, © 2015

See weather overviewHow to use our weather pages